Regional Weather Roundup
Issued by NWS

Home | Current Version | Previous Version | Text Only | Print | Product List | Glossary On
Versions: 1 2 3 4 5 6 7 8 9 10 11 12 13 14 15 16 17 18 19 20 21 22 23 24 25 26 27 28 29 30 31 32 33 34 35 36 37 38 39 40 41 42 43 44 45 46 47 48 49 50
000
ASUS45 KREV 291710
RWRNV
NEVADA REGIONAL WEATHER ROUNDUP
NATIONAL WEATHER SERVICE RENO NV
1000 AM PDT SAT AUG 29 2015

NOTE: "FAIR" INDICATES FEW OR NO CLOUDS BELOW 12,000 FEET WITH NO
SIGNIFICANT WEATHER AND/OR OBSTRUCTIONS TO VISIBILITY.

NVZ001-003-004-291800-
WESTERN NEVADA

CITY           SKY/WX    TMP DP  RH WIND       PRES   REMARKS
RENO           PTSUNNY   77  46  33 S18       30.04S
CARSON CITY    FAIR      75  43  31 S7G17     30.07S
MINDEN         FAIR      77  45  31 S22G32    30.06F
SLIDE MTN        N/A     46  41  81 SW26        N/A
PYRAMID LAKE     N/A     75 N/A N/A S12         N/A
FALLON         CLOUDY    85  39  19 W20       30.00R
LOVELOCK       PTSUNNY   83  43  24 SW23      30.00R
HAWTHORNE      SUNNY     86  32  14 S23G32    30.00S
$$

NVZ002-CAZ072-073-291800-
NORTHERN AND CENTRAL SIERRA

CITY           SKY/WX    TMP DP  RH WIND       PRES   REMARKS
S. LAKE TAHOE  PTSUNNY   68  45  43 S15G30    30.16S
TRUCKEE        MOSUNNY   66  45  45 S20G29    30.16S
SQUAW VLY 8000   N/A     54  41  62 S10         N/A
SUSANVILLE     SUNNY     72  43  35 S14G24    30.03F
BLUE CANYON    CLOUDY    59  45  59 S8        30.17R
MAMMOTH LAKES  FAIR      70  28  21 W7G17     30.26R
BRIDGEPORT     FAIR      70  37  29 SW10G22   30.20S
$$

NVZ030-031-036-291800-
NORTHERN NEVADA

CITY           SKY/WX    TMP DP  RH WIND       PRES   REMARKS
ELKO           MOSUNNY   79  46  31 CALM      30.06F
WINNEMUCCA     MOSUNNY   83  38  20 SW13G21   30.00S
WENDOVER       CLOUDY    81  39  22 NE8       30.05S
$$

NVZ035-037-291800-
CENTRAL NEVADA

CITY           SKY/WX    TMP DP  RH WIND       PRES   REMARKS
ELY            PTSUNNY   81  44  27 S22       30.20S
EUREKA           N/A     83  40  21 S18       30.13S
$$

NVZ013-014-291800-
SOUTH CENTRAL NEVADA

CITY           SKY/WX    TMP DP  RH WIND       PRES   REMARKS
TONOPAH        PTSUNNY   82  38  20 S14G22    30.13F
$$

NVZ017-020-022-291800-
SOUTHERN NEVADA

CITY           SKY/WX    TMP DP  RH WIND       PRES   REMARKS
LAS VEGAS      MOSUNNY   98  44  15 SE9       29.90R
N. LAS VEGAS   SUNNY     93  50  23 S6        29.93R
NELLIS AFB     SUNNY     96  48  19 S6        29.90S
HENDERSON      SUNNY     97  47  18 S14       29.97R
MERCURY        SUNNY     95  38  13 S18G26    30.00R
$$


USA.gov is the U.S. government's official web portal to all federal, state and local government web resources and services.